This is the latest recevied weather packets stored in our database for station/object KD4IZ-13. If no packets are shown the sender has not sent any weather packets the latest 1 day(s).
| Time | Temp. | Humidity | Pressure | Rain* | Wind** | Luminosity | Snow |
|---|---|---|---|---|---|---|---|
| 1778081592 | 15° C | 99% | 1010.4 hPa | 0 mm | - | 156 W/m² | - |
| 1778081289 | 15° C | 99% | 1010.3 hPa | 0 mm | - | 162 W/m² | - |
| 1778079472 | 15° C | 99% | 1011.4 hPa | 1.27 mm | - | 37 W/m² | - |
| 1778078866 | 15° C | 99% | 1010.9 hPa | 1.78 mm | - | 57 W/m² | - |
| 1778078563 | 15° C | 99% | 1010.9 hPa | 0 mm | - | 63 W/m² | - |
| 1778076750 | 15.56° C | 99% | 1010.6 hPa | 0 mm | - | 128 W/m² | - |
| 1778076144 | 15.56° C | 99% | 1010.8 hPa | 1.78 mm | - | 114 W/m² | - |
| 1778075537 | 15.56° C | 99% | 1011.1 hPa | 1.27 mm | - | 84 W/m² | - |
| 1778075234 | 15.56° C | 99% | 1011.3 hPa | 1.78 mm | - | 98 W/m² | - |
| 1778074930 | 15.56° C | 99% | 1011.3 hPa | 1.78 mm | - | 97 W/m² | - |
| 1778073718 | 15.56° C | 98% | 1011.2 hPa | 3.05 mm | - | 62 W/m² | - |
| 1778072506 | 16.11° C | 96% | 1011.1 hPa | 1.78 mm | - | 57 W/m² | - |
| 1778071297 | 16.67° C | 91% | 1011.2 hPa | 1.27 mm | - | 46 W/m² | - |
| 1778070994 | 16.67° C | 90% | 1011 hPa | 0 mm | - | 56 W/m² | - |
| 1778070693 | 16.67° C | 89% | 1011.3 hPa | 0 mm | - | 67 W/m² | - |
| 1778068272 | 17.78° C | 82% | 1011.3 hPa | 0 mm | - | 36 W/m² | - |
| 1778067969 | 17.78° C | 83% | 1011.2 hPa | 0 mm | - | 56 W/m² | - |
| 1778067667 | 17.78° C | 82% | 1011.3 hPa | 0 mm | - | 50 W/m² | - |
| 1778067062 | 17.78° C | 82% | 1011.1 hPa | 0 mm | - | 28 W/m² | - |
| 1778066758 | 17.78° C | 82% | 1010.9 hPa | 0 mm | - | 41 W/m² | - |
| 1778066456 | 17.78° C | 82% | 1010.7 hPa | 0 mm | - | 49 W/m² | - |
| 1778065548 | 17.78° C | 80% | 1010.6 hPa | 0 mm | - | 21 W/m² | - |
| 1778064639 | 18.33° C | 79% | 1010.7 hPa | 0 mm | - | 12 W/m² | - |
| 1778064034 | 18.33° C | 78% | 1010.6 hPa | 0 mm | - | 12 W/m² | - |
| 1778063428 | 18.33° C | 78% | 1010.5 hPa | 0 mm | - | 12 W/m² | - |
* Rain latest hour (hover to see other rain measurements)
** Current wind speed in m/s (hover to see current wind gust speed)